Change the Weather History Date:

Thursday, October 3, 2013

  Actual Average Record
Temperature  
Mean Temperature 76 °F -  
Max Temperature 82 °F 80 °F 91 °F (1985)
Min Temperature 71 °F 68 °F 53 °F (1984)
Cooling Degree Days 12    
Growing Degree Days 26 (Base 50)    
Moisture  
Dew Point 72 °F    
Average Humidity 83    
Maximum Humidity 94    
Minimum Humidity 71    
Precipitation  
Precipitation 0.00 in - - ()
Sea Level Pressure  
Sea Level Pressure 30.07 in    
Wind  
Wind Speed 6 mph (NE)    
Max Wind Speed 14 mph    
Max Gust Speed 20 mph    
Visibility 10 miles    
Events      
Averages and records for this station are not official NWS values.
T = Trace of Precipitation, MM = Missing Value Source: NWS Daily Summary

Daily Weather History Graph

Daily Weather History Graph

Search for Another Location

Airport or City:

Trip Planner

Search our weather history database for the weather conditions in past years. The results will help you decide how hot, cold, wet, or windy it might be!

Date:

Astronomy

Oct. 03, 2013 Rise Set
Actual Time 7:20 AM EDT 7:08 PM EDT
Civil Twilight 6:56 AM EDT 7:31 PM EDT
Nautical Twilight 6:28 AM EDT 7:59 PM EDT
Astronomical Twilight 6:00 AM EDT 8:27 PM EDT
Moon 5:56 AM EDT (10/3) 6:14 PM EDT (10/3)
Length of Visible Light 12h 35m
Length of Day
11h 48m
Waning Crescent, 2% of the Moon is Illuminated
Oct 3
Waning Crescent
Oct 4
New
Oct 11
First Quarter
Oct 18
Full
Oct 26
Last Quarter

Hourly Weather History & Observations

Time (EDT) Temp. Heat Index Dew Point Humidity Pressure Visibility Wind Dir Wind Speed Gust Speed Precip Events Conditions
12:58 AM 75.9 °F - 71.1 °F 85% 30.09 in 10.0 mi ENE 6.9 mph - N/A   Mostly Cloudy
1:51 AM 75.2 °F - 71.6 °F 89% 30.08 in 10.0 mi ENE 8.1 mph - N/A   Mostly Cloudy
1:58 AM 75.9 °F - 71.1 °F 85% 30.08 in 10.0 mi ENE 5.8 mph - N/A   Scattered Clouds
2:36 AM 75.2 °F - 71.6 °F 89% 30.07 in 10.0 mi NE 5.8 mph - N/A   Mostly Cloudy
2:51 AM 75.2 °F - 71.6 °F 89% 30.06 in 10.0 mi NE 6.9 mph - N/A   Scattered Clouds
2:58 AM 75.0 °F - 71.1 °F 87% 30.06 in 10.0 mi NE 5.8 mph - N/A   Scattered Clouds
3:27 AM 75.2 °F - 71.6 °F 89% 30.05 in 7.0 mi NNE 6.9 mph - N/A   Mostly Cloudy
3:31 AM 75.2 °F - 71.6 °F 89% 30.05 in 10.0 mi NNE 4.6 mph - N/A   Scattered Clouds
3:42 AM 75.2 °F - 71.6 °F 89% 30.05 in 10.0 mi NNW 3.5 mph - N/A   Mostly Cloudy
3:51 AM 73.4 °F - 71.6 °F 94% 30.05 in 10.0 mi NNW 3.5 mph - N/A   Mostly Cloudy
3:58 AM 73.9 °F - 71.1 °F 91% 30.05 in 10.0 mi Calm Calm - N/A   Mostly Cloudy
4:02 AM 73.4 °F - 71.6 °F 94% 30.05 in 10.0 mi Calm Calm - N/A   Mostly Cloudy
4:58 AM 72.0 °F - 70.0 °F 93% 30.05 in 10.0 mi WNW 3.5 mph - N/A   Mostly Cloudy
5:58 AM 71.1 °F - 69.1 °F 93% 30.05 in 10.0 mi NW 5.8 mph - N/A   Clear
6:58 AM 71.1 °F - 69.1 °F 93% 30.05 in 10.0 mi NW 3.5 mph - N/A   Partly Cloudy
7:58 AM 72.0 °F - 69.1 °F 91% 30.06 in 10.0 mi Calm Calm - N/A   Scattered Clouds
8:58 AM 77.0 °F - 72.0 °F 84% 30.08 in 10.0 mi Calm Calm - N/A   Clear
9:58 AM 81.0 °F 84.9 °F 71.1 °F 72% 30.10 in 10.0 mi NE 8.1 mph - N/A   Clear
10:58 AM 82.0 °F 86.7 °F 72.0 °F 71% 30.12 in 10.0 mi ENE 8.1 mph 19.6 mph N/A   Partly Cloudy
11:58 AM 81.0 °F 85.8 °F 73.0 °F 77% 30.12 in 10.0 mi NNE 10.4 mph - N/A   Overcast
12:58 PM 82.0 °F 87.4 °F 73.0 °F 74% 30.11 in 10.0 mi NNE 13.8 mph - N/A   Scattered Clouds
1:58 PM 82.0 °F 87.4 °F 73.0 °F 74% 30.09 in 10.0 mi NNE 12.7 mph - N/A   Scattered Clouds
2:58 PM 82.9 °F 88.8 °F 73.0 °F 72% 30.07 in 10.0 mi NE 12.7 mph - N/A   Partly Cloudy
3:58 PM 82.0 °F 87.4 °F 73.0 °F 74% 30.06 in 10.0 mi ENE 11.5 mph - N/A   Partly Cloudy
4:58 PM 82.0 °F 87.4 °F 73.0 °F 74% 30.05 in 10.0 mi ENE 10.4 mph - N/A   Clear
5:58 PM 81.0 °F 85.8 °F 73.0 °F 77% 30.05 in 10.0 mi ENE 9.2 mph - N/A   Clear
6:58 PM 80.1 °F 83.8 °F 72.0 °F 76% 30.05 in 10.0 mi East 4.6 mph - N/A   Clear
7:58 PM 79.0 °F - 72.0 °F 79% 30.06 in 10.0 mi East 4.6 mph - N/A   Clear
8:58 PM 79.0 °F - 72.0 °F 79% 30.08 in 10.0 mi ENE 4.6 mph - N/A   Clear
9:58 PM 78.1 °F - 72.0 °F 81% 30.09 in 10.0 mi ENE 3.5 mph - N/A   Clear
10:58 PM 78.1 °F - 73.0 °F 84% 30.10 in 10.0 mi ENE 4.6 mph - N/A   Clear